Auch-Lamothe Airport

LFDH · Gers, Occitanie, França

História da METAR LFDH · Auch-Lamothe Airport

Abaixo você vê METARs dos últimos dias. Selecione um ano para navegar pelos METARs mais antigos, a partir do ano 2007.

29 de novembro de 2022

Hora Código Clima Temp. Visibilidade Tecto Vento METAR/SPECI
11:30
I
10 °C 10 km+ 700 ft 330° 330° 5 kt METAR LFBA 291030Z AUTO 33005KT 300V360 9999 OVC007 10/09 Q1020 BECMG BKN017
11:00
I
10 °C 10 km+ 600 ft Var Var 3 kt METAR LFBA 291000Z AUTO VRB03KT 9999 BKN006 BKN036 BKN070 10/09 Q1020 TEMPO 4000 BR
10:30
I
9 °C 10 km+ 800 ft 340° 340° 3 kt METAR LFBA 290930Z AUTO 34003KT 9999 BKN008 09/09 Q1020 TEMPO 4000 BR
10:00
I
8 °C 10 km+ 600 ft 360° 360° 3 kt METAR LFBA 290900Z AUTO 36003KT 9999 OVC006 08/08 Q1020 TEMPO 4000 BR
09:30
I
7 °C 5 km 700 ft 320° 320° 2 kt METAR LFBA 290830Z AUTO 32002KT 5000 BR OVC007 07/07 Q1020 NOSIG
09:00
I
8 °C 10 km+ 700 ft 330° 330° 3 kt METAR LFBA 290800Z AUTO 33003KT 210V010 9999 BKN007 OVC064 08/07 Q1020 TEMPO 3000 BR
08:30
I
7 °C 9 km 700 ft 220° 220° 1 kt METAR LFBA 290730Z AUTO 22001KT 9000 OVC007 07/07 Q1019 TEMPO 3000 BR
08:00
V
7 °C 10 km+ 6.400 ft 010° 010° 2 kt METAR LFBA 290700Z AUTO 01002KT 9999 SCT007/// SCT050/// OVC064/// ///TCU 07/07 Q1019 TEMPO 3000 BR BKN007
07:30
I
6 °C 10 km+ 900 ft Var 000° 0 kt METAR LFBA 290630Z AUTO 00000KT 9999 BKN009 BKN054 OVC068 06/06 Q1019 TEMPO 3000 BR
07:00
I
6 °C 7 km 800 ft 130° 130° 2 kt METAR LFBA 290600Z AUTO 13002KT 7000 OVC008 06/06 Q1019
06:30
L
6 °C 800 m - 100° 100° 2 kt METAR LFBA 290530Z AUTO 10002KT 0800 R29/0800N FG VV/// 06/06 Q1019
06:00
L
4 °C 500 m - 100° 100° 4 kt METAR LFBA 290500Z AUTO 10004KT 0550 0500 R29/0600U FG VV/// //////TCU 04/04 Q1019
05:30
L
4 °C 800 m - 060° 060° 2 kt METAR LFBA 290430Z AUTO 06002KT 0900 0800 R29/1000D FG VV/// ///TCU 04/04 Q1019
05:00
L
4 °C 900 m - Var 000° 0 kt METAR LFBA 290400Z AUTO 00000KT 1000 0900 R29/1100U BCFG VV/// //////TCU 04/04 Q1019
04:30
L
4 °C 750 m - 330° 330° 2 kt METAR LFBA 290330Z AUTO 33002KT 0750 R29/0800D FG VV/// //////TCU 04/04 Q1019
04:00
I
6 °C 3 km - Var Var 2 kt METAR LFBA 290300Z AUTO VRB02KT 3000 BR NSC 06/05 Q1019
03:30
V
7 °C 10 km+ - 280° 280° 3 kt METAR LFBA 290230Z AUTO 28003KT 9999 NSC 07/07 Q1019
03:00
V
6 °C 10 km+ - 300° 300° 3 kt METAR LFBA 290200Z AUTO 30003KT 260V320 9999 SCT007 SCT098 06/06 Q1019
02:30
V
6 °C 10 km+ 10.000 ft 260° 260° 4 kt METAR LFBA 290130Z AUTO 26004KT 9999 SCT007 SCT035 BKN100 06/06 Q1019
02:00
I
6 °C 3,4 km - Var Var 2 kt METAR LFBA 290100Z AUTO VRB02KT 7000 3400 NSC 06/05 Q1019
01:30
V
6 °C 8 km 5.800 ft 310° 310° 2 kt METAR LFBA 290030Z AUTO 31002KT 8000 SCT045 BKN058 06/06 Q1019
01:00
V
7 °C 10 km+ 5.800 ft 280° 280° 3 kt METAR LFBA 290000Z AUTO 28003KT 250V310 9999 FEW039 BKN058 07/07 Q1020
00:30
V
7 °C 10 km+ 5.600 ft 280° 280° 3 kt METAR LFBA 282330Z AUTO 28003KT 260V320 9999 FEW030 BKN056 07/07 Q1020
00:00
V
7 °C 10 km+ - 270° 270° 3 kt METAR LFBA 282300Z AUTO 27003KT 230V290 9999 NSC 07/06 Q1020

28 de novembro de 2022

Hora Código Clima Temp. Visibilidade Tecto Vento METAR/SPECI
23:30
V
8 °C 10 km+ - 260° 260° 3 kt METAR LFBA 282230Z AUTO 26003KT 9999 NSC 08/07 Q1020
23:00
V
8 °C 10 km+ - 260° 260° 5 kt METAR LFBA 282200Z AUTO 26005KT 9999 NSC 08/07 Q1020
22:30
V
8 °C 10 km+ - 270° 270° 4 kt METAR LFBA 282130Z AUTO 27004KT 9999 FEW034 08/07 Q1020
22:00
V
9 °C 10 km+ - 270° 270° 4 kt METAR LFBA 282100Z AUTO 27004KT 240V300 9999 NSC 09/07 Q1019 NOSIG
21:30
M
9 °C 10 km+ 2.700 ft 270° 270° 4 kt METAR LFBA 282030Z AUTO 27004KT 9999 BKN027 BKN039 09/08 Q1019 NOSIG
21:00
V
9 °C 10 km+ 3.500 ft 290° 290° 5 kt METAR LFBA 282000Z AUTO 29005KT 9999 FEW028 BKN035 BKN047 09/07 Q1019 NOSIG
20:30
V
10 °C 10 km+ - 260° 260° 7 kt METAR LFBA 281930Z AUTO 26007KT 230V290 9999 NSC 10/07 Q1019 NOSIG
20:00
V
10 °C 10 km+ - 260° 260° 7 kt METAR LFBA 281900Z AUTO 26007KT 9999 NSC 10/07 Q1019 NOSIG
19:30
V
10 °C 10 km+ - 260° 260° 8 kt METAR LFBA 281830Z AUTO 26008KT 9999 //////TCU 10/08 Q1018 BECMG NSC
19:00
V
11 °C 10 km+ 3.500 ft 250° 250° 7 kt METAR LFBA 281800Z AUTO 25007KT 9999 SCT030/// BKN035/// BKN056/// //////CB 11/09 Q1018 BECMG NSC
18:30
V
11 °C 10 km+ 13.000 ft 240° 240° 7 kt METAR LFBA 281730Z AUTO 24007KT 210V280 9999 FEW040/// BKN130/// ///TCU 11/09 Q1018 BECMG NSC
18:00
V
12 °C 10 km+ 5.800 ft 250° 250° 7 kt METAR LFBA 281700Z AUTO 25007KT 220V280 9999 FEW032/// SCT049/// BKN058/// ///CB 12/09 Q1018 BECMG NSC
17:30
V
12 °C 10 km+ 8.200 ft 250° 250° 10 kt METAR LFBA 281630Z AUTO 25010KT 220V290 9999 FEW037/// SCT044/// BKN082/// //////CB 12/09 Q1017 BECMG NSC
17:00
V
12 °C 10 km+ 3.600 ft 240° 240° 4 kt METAR LFBA 281600Z AUTO 24004KT 9999 BKN036/// BKN060/// ///CB 12/10 Q1017 TEMPO 4000 SHRA BECMG NSC
16:30
V
13 °C 10 km+ - 250° 250° 7 kt METAR LFBA 281530Z AUTO 25007KT 9999 FEW034/// SCT056/// ///CB 13/09 Q1017 TEMPO 4000 SHRA BECMG NSC
16:00
V
13 °C 10 km+ - 260° 260° 10 kt METAR LFBA 281500Z AUTO 26010KT 230V290 9999 NSC 13/09 Q1017 TEMPO 4000 SHRA BKN020 BKN030TCU
15:30
V
14 °C 10 km+ - 250° 250° 7 kt METAR LFBA 281430Z AUTO 25007KT 210V280 9999 //////CB 14/09 Q1017 TEMPO 4000 SHRA
15:00
V
13 °C 10 km+ 14.000 ft 240° 240° 5 kt METAR LFBA 281400Z AUTO 24005KT 200V280 9999 FEW046/// SCT070/// BKN140/// //////TCU 13/10 Q1017 TEMPO 4000 SHRA
14:30
V
12 °C 10 km+ 14.000 ft 250° 250° 5 kt METAR LFBA 281330Z AUTO 25005KT 220V280 9999 FEW034/// BKN140/// ///CB 12/09 Q1018 TEMPO 4000 SHRA
14:00
V
11 °C 10 km+ - 270° 270° 5 kt METAR LFBA 281300Z AUTO 27005KT 9999 FEW033/// SCT054/// ///CB 11/08 Q1018 NOSIG
13:30
I
12 °C 3 km 3.000 ft 280° 280° 8 kt METAR LFBA 281230Z AUTO 28008KT 9999 3000 RA FEW024/// BKN030/// BKN038/// //////CB 12/10 Q1018 BECMG NSW
13:00
V
14 °C 10 km+ 3.500 ft 230° 230° 7 kt METAR LFBA 281200Z AUTO 23007KT 200V290 9999 BKN035/// BKN045/// BKN052/// //////CB 14/10 Q1018 NOSIG
12:30
V
12 °C 10 km+ 5.800 ft 250° 250° 6 kt METAR LFBA 281130Z AUTO 25006KT 220V280 9999 FEW018/// BKN058/// //////TCU 12/09 Q1018 NOSIG
12:00
V
13 °C 10 km+ - 250° 250° 7 kt METAR LFBA 281100Z AUTO 25007KT 210V280 9999 FEW011/// ///TCU 13/10 Q1019 NOSIG
11:30
V
12 °C 10 km+ - 250° 250° 7 kt METAR LFBA 281030Z AUTO 25007KT 210V280 9999 FEW009 12/10 Q1019 TEMPO SCT025TCU
11:00
V
11 °C 10 km+ - 240° 240° 10 kt METAR LFBA 281000Z AUTO 24010KT 210V270 CAVOK 11/09 Q1019 TEMPO SCT025TCU
10:30
V
11 °C 10 km+ - 240° 240° 8 kt METAR LFBA 280930Z AUTO 24008KT 200V280 CAVOK 11/09 Q1018 TEMPO SCT025TCU
10:00
V
10 °C 10 km+ - 240° 240° 7 kt METAR LFBA 280900Z AUTO 24007KT 200V270 CAVOK 10/09 Q1018 TEMPO SCT025TCU
09:30
V
10 °C 10 km+ - 250° 250° 7 kt METAR LFBA 280830Z AUTO 25007KT CAVOK 10/09 Q1018 TEMPO 4000 SHRA BKN010 BKN020TCU
09:00
V
10 °C 10 km+ - 240° 240° 6 kt METAR LFBA 280800Z AUTO 24006KT 210V270 CAVOK 10/09 Q1018 TEMPO 4000 SHRA BKN010 BKN020TCU
08:30
V
10 °C 10 km+ 5.800 ft 240° 240° 5 kt METAR LFBA 280730Z AUTO 24005KT 9999 FEW037/// SCT047/// OVC058/// //////TCU 10/09 Q1018 TEMPO 4000 SHRA BKN010 BKN020TCU
08:00
M
10 °C 10 km+ 1.200 ft 260° 260° 8 kt METAR LFBA 280700Z AUTO 26008KT 230V290 9999 BKN012/// BKN018/// BKN045/// //////TCU 10/09 Q1018 TEMPO 4000 SHRA SCT009 BKN020TCU
07:30
M
10 °C 7 km 1.700 ft 260° 260° 9 kt METAR LFBA 280630Z AUTO 26009KT 7000 -RA SCT009/// BKN017/// OVC028/// //////TCU 10/09 Q1018 TEMPO 4000 SHRA
07:00
V
10 °C 10 km+ 3.300 ft 260° 260° 7 kt METAR LFBA 280600Z AUTO 26007KT 230V290 9999 FEW010/// SCT027/// BKN033/// ///TCU 10/09 Q1017 TEMPO 4000 SHRA
06:30
V
10 °C 10 km+ 10.000 ft 250° 250° 8 kt METAR LFBA 280530Z AUTO 25008KT 220V290 9999 FEW025/// SCT034/// BKN100/// //////TCU 10/09 Q1017
06:00
M
10 °C 10 km+ 2.600 ft 260° 260° 8 kt METAR LFBA 280500Z AUTO 26008KT 220V300 9999 BKN026/// BKN035/// OVC160/// //////CB 10/09 Q1017
05:30
M
10 °C 10 km+ 2.500 ft 240° 240° 7 kt METAR LFBA 280430Z AUTO 24007KT 190V310 9999 OVC025/// ///TCU 10/09 Q1017
05:00
M
10 °C 10 km+ 2.500 ft 250° 250° 6 kt METAR LFBA 280400Z AUTO 25006KT 210V290 9999 BKN025/// BKN040/// BKN060/// ///TCU 10/09 Q1017
04:30
V
10 °C 10 km+ 10.000 ft 230° 230° 8 kt METAR LFBA 280330Z AUTO 23008KT 190V260 9999 FEW029/// SCT037/// OVC100/// //////TCU 10/09 Q1017
04:00
V
10 °C 10 km+ 10.000 ft 220° 220° 6 kt METAR LFBA 280300Z AUTO 22006KT 170V260 9999 FEW032/// SCT060/// OVC100/// //////CB 10/09 Q1017
03:30
V
10 °C 10 km+ 4.600 ft 210° 210° 5 kt METAR LFBA 280230Z AUTO 21005KT 170V250 9999 -RA SCT037/// BKN046/// BKN058/// //////TCU 10/09 Q1017
03:00
V
10 °C 10 km+ 8.000 ft 230° 230° 6 kt METAR LFBA 280200Z AUTO 23006KT 180V270 9999 -RA FEW024/// SCT062/// OVC080/// ///CB 10/10 Q1017
02:30
M
10 °C 10 km+ 2.000 ft 230° 230° 7 kt METAR LFBA 280130Z AUTO 23007KT 200V260 9999 -RA FEW008/// BKN020/// BKN029/// ///CB 10/10 Q1017
02:00
I
10 °C 5 km 800 ft 310° 310° 5 kt METAR LFBA 280100Z AUTO 31005KT 270V350 5000 RA BR BKN008/// BKN013/// BKN022/// ///CB 10/10 Q1017
01:30
M
10 °C 5 km 3.500 ft 170° 170° 5 kt METAR LFBA 280030Z AUTO 17005KT 120V190 5000 RA BR FEW016/// BKN035/// BKN041/// ///CB 10/09 Q1017
01:00
M
10 °C 8 km 1.800 ft Var Var 3 kt METAR LFBA 280000Z AUTO VRB03KT 8000 RA BKN018/// BKN035/// BKN048/// //////CB 10/09 Q1017
00:30
V
10 °C 10 km+ 7.600 ft 120° 120° 5 kt METAR LFBA 272330Z AUTO 12005KT 090V150 9999 -RA SCT021/// SCT027/// OVC076/// //////TCU 10/09 Q1017
00:00
V
10 °C 10 km+ - 120° 120° 4 kt METAR LFBA 272300Z AUTO 12004KT 9999 RA //////TCU 10/09 Q1017

27 de novembro de 2022

Hora Código Clima Temp. Visibilidade Tecto Vento METAR/SPECI
23:30
V
11 °C 10 km+ 5.800 ft 190° 190° 5 kt METAR LFBA 272230Z AUTO 19005KT 140V230 9999 -RA FEW020/// SCT048/// BKN058/// //////CB 11/09 Q1017 TEMPO 2000 RA BKN013
23:00
M
11 °C 10 km+ 1.800 ft 070° 070° 3 kt METAR LFBA 272200Z AUTO 07003KT 040V130 9999 -RA BKN018/// BKN035/// OVC098/// //////CB 11/09 Q1017 TEMPO 4500 -RA BKN013
22:30
M
11 °C 10 km+ 2.100 ft 180° 180° 5 kt METAR LFBA 272130Z AUTO 18005KT 130V230 9999 OVC021 11/08 Q1017 TEMPO 4500 -RA BKN013
22:00
M
10 °C 10 km+ 2.100 ft 170° 170° 5 kt METAR LFBA 272100Z AUTO 17005KT 090V220 9999 BKN021 OVC150 10/08 Q1017 NOSIG
21:30
V
9 °C 10 km+ 16.000 ft 090° 090° 4 kt METAR LFBA 272030Z AUTO 09004KT 9999 SCT023 BKN160 OVC200 09/08 Q1017 NOSIG
21:00
M
9 °C 10 km+ 2.500 ft 100° 100° 6 kt METAR LFBA 272000Z AUTO 10006KT 9999 BKN025 BKN160 BKN190 09/08 Q1017 NOSIG
20:30
V
10 °C 10 km+ 3.100 ft 070° 070° 5 kt METAR LFBA 271930Z AUTO 07005KT 9999 BKN031 BKN038 BKN240 10/08 Q1018 NOSIG
20:00
V
9 °C 10 km+ - Var Var 3 kt METAR LFBA 271900Z AUTO VRB03KT CAVOK 09/08 Q1018 NOSIG
19:30
V
9 °C 10 km+ - Var Var 2 kt METAR LFBA 271830Z AUTO VRB02KT CAVOK 09/08 Q1017 NOSIG
19:00
V
9 °C 10 km+ - 150° 150° 4 kt METAR LFBA 271800Z AUTO 15004KT 120V200 CAVOK 09/08 Q1017 NOSIG
18:30
V
9 °C 10 km+ - Var Var 3 kt METAR LFBA 271730Z AUTO VRB03KT CAVOK 09/07 Q1018 NOSIG
18:00
V
10 °C 10 km+ - 090° 090° 2 kt METAR LFBA 271700Z AUTO 09002KT CAVOK 10/08 Q1017 NOSIG
17:30
V
10 °C 10 km+ - 120° 120° 3 kt METAR LFBA 271630Z AUTO 12003KT CAVOK 10/08 Q1017 NOSIG
17:00
V
11 °C 10 km+ - 130° 130° 6 kt METAR LFBA 271600Z AUTO 13006KT CAVOK 11/08 Q1017 NOSIG
16:30
V
12 °C 10 km+ - 110° 110° 7 kt METAR LFBA 271530Z AUTO 11007KT CAVOK 12/08 Q1017 NOSIG
16:00
V
12 °C 10 km+ - 110° 110° 6 kt METAR LFBA 271500Z AUTO 11006KT CAVOK 12/08 Q1018 NOSIG
15:30
V
13 °C 10 km+ - 120° 120° 6 kt METAR LFBA 271430Z AUTO 12006KT CAVOK 13/08 Q1018 NOSIG
15:00
V
12 °C 10 km+ - 100° 100° 6 kt METAR LFBA 271400Z AUTO 10006KT CAVOK 12/09 Q1018 NOSIG
14:30
V
12 °C 10 km+ - 110° 110° 7 kt METAR LFBA 271330Z AUTO 11007KT CAVOK 12/09 Q1018 NOSIG
14:00
V
11 °C 10 km+ - 110° 110° 8 kt METAR LFBA 271300Z AUTO 11008KT CAVOK 11/09 Q1019 NOSIG
13:30
V
10 °C 10 km+ - 110° 110° 7 kt METAR LFBA 271230Z AUTO 11007KT CAVOK 10/08 Q1019 NOSIG
13:00
V
10 °C 10 km+ - 120° 120° 7 kt METAR LFBA 271200Z AUTO 12007KT CAVOK 10/07 Q1020 NOSIG
12:30
V
9 °C 10 km+ - 110° 110° 6 kt METAR LFBA 271130Z AUTO 11006KT CAVOK 09/07 Q1021 NOSIG
12:00
V
8 °C 10 km+ - 120° 120° 9 kt METAR LFBA 271100Z AUTO 12009KT CAVOK 08/06 Q1021 NOSIG
11:30
V
7 °C 10 km+ - 120° 120° 8 kt METAR LFBA 271030Z AUTO 12008KT CAVOK 07/05 Q1022 NOSIG
11:00
V
6 °C 10 km+ - 100° 100° 8 kt METAR LFBA 271000Z AUTO 10008KT CAVOK 06/05 Q1022 NOSIG

Nós e terceiros acompanhamos seu comportamento na internet em nosso site com cookies. Se você continuar, nós assumimos que você concorda com nosso política de cookies.